FW6146 Weather Reports


Display with metric or nautical units.
time (UTC)temp
F
wind
direction
speed
MPH
gust
MPH
rain 1hr
in
rain 24hr
in
rain mn
in
humidity
%
barometer
mb
20200710181025 82 90 0.0 0.0 0.00 0.02 0.02 86 1014.0
20200710180302 82 0.0 0.0 0.00 0.02 0.02 86 1014.0
20200710175255 85 135 0.0 0.0 0.00 0.02 0.02 78 1014.0
20200710174300 83 113 1.0 2.0 0.00 0.02 0.02 81 1014.0
20200710173255 83 90 0.0 0.0 0.00 0.02 0.02 83 1014.0
20200710172257 84 113 0.0 1.0 0.00 0.02 0.02 81 1014.4
20200710171249 83 0.0 0.0 0.00 0.02 0.02 83 1014.4
20200710170253 82 90 0.0 0.0 0.00 0.02 0.02 86 1014.4
20200710165306 82 225 0.0 1.0 0.00 0.02 0.02 83 1014.4
20200710164251 82 0.0 0.0 0.00 0.02 0.02 81 1014.4
20200710163031 81 23 0.0 0.0 0.00 0.02 0.02 86 1014.7
20200710162022 81 45 0.0 0.0 0.00 0.02 0.02 86 1014.8
20200710161028 81 0.0 0.0 0.00 0.02 0.02 83 1014.8
20200710160247 82 180 0.0 0.0 0.00 0.02 0.02 83 1015.0
20200710155255 81 0.0 0.0 0.00 0.02 0.02 86 1014.9
20200710154309 80 0.0 0.0 0.00 0.02 0.02 88 1015.0
20200710153254 80 158 0.0 0.0 0.00 0.02 0.02 88 1015.0
20200710152305 81 158 0.0 0.0 0.00 0.02 0.02 83 1015.0
20200710151249 82 219 2.0 4.0 0.01 0.02 0.02 85 1014.8
20200710150258 81 0.0 0.0 0.01 0.02 0.02 85 1015.0
20200710145248 81 270 0.0 1.0 0.02 0.02 0.02 84 1015.0
20200710144255 81 248 2.0 4.0 0.02 0.02 0.02 84 1015.0
20200710143303 81 45 0.0 0.0 0.02 0.02 0.02 86 1015.0
20200710142252 81 0.0 0.0 0.02 0.02 0.02 85 1015.0
20200710141034 80 225 0.0 1.0 0.01 0.01 0.01 85 1015.2
20200710140255 80 68 0.0 0.0 0.01 0.01 0.01 88 1015.4
20200710135258 79 68 0.0 0.0 0.00 0.00 0.00 88 1015.4
20200710134250 79 113 0.0 0.0 0.00 0.00 0.00 88 1015.5
20200710133255 78 0.0 0.0 0.00 0.00 0.00 89 1015.6
20200710132307 78 203 1.0 2.0 0.00 0.00 0.00 90 1015.7
20200710131254 77 248 0.0 0.0 0.00 0.00 0.00 92 1015.6
20200710130034 76 0.0 0.0 0.00 0.00 0.00 93 1015.7
20200710125029 76 225 0.0 0.0 0.00 0.00 0.00 96 1015.7
20200710124030 75 90 0.0 0.0 0.00 0.00 0.00 96 1015.9
20200710123020 75 45 0.0 0.0 0.00 0.00 0.00 98 1015.9
20200710122028 74 0.0 0.0 0.00 0.00 0.00 98 1015.7
20200710121017 74 225 1.0 2.0 0.00 0.00 0.00 98 1015.7
20200710120253 74 0.0 0.0 0.00 0.00 0.00 98 1015.7
20200710115303 73 270 1.0 2.0 0.00 0.00 0.00 98 1015.7
20200710114252 73 225 0.0 1.0 0.00 0.00 0.00 98 1015.7
20200710113259 73 203 0.0 0.0 0.00 0.00 0.00 98 1015.7
20200710112253 73 225 0.0 0.0 0.00 0.00 0.00 98 1015.7
20200710111256 72 0.0 0.0 0.00 0.00 0.00 98 1016.1
20200710110248 72 0.0 0.0 0.00 0.00 0.00 98 1016.1
20200710105253 72 158 0.0 0.0 0.00 0.00 0.00 98 1015.9
20200710104302 72 240 1.0 2.0 0.00 0.00 0.00 98 1015.7
20200710103251 72 0.0 0.0 0.00 0.00 0.00 98 1015.7
20200710102031 71 225 0.0 0.0 0.00 0.00 0.00 98 1015.7
20200710101024 71 203 0.0 0.0 0.00 0.00 0.00 98 1016.1
20200710100302 71 203 0.0 0.0 0.00 0.00 0.00 98 1016.1
20200710095246 71 203 0.0 0.0 0.00 0.00 0.00 98 1016.1
20200710094257 71 0.0 0.0 0.00 0.00 0.00 98 1015.9
20200710093302 71 0.0 0.0 0.00 0.00 0.00 98 1016.1
20200710092252 71 225 0.0 0.0 0.00 0.00 0.00 98 1015.9
20200710091031 71 0.0 0.0 0.00 0.00 0.00 98 1015.7
20200710090023 71 214 0.0 1.0 0.00 0.00 0.00 98 1015.7
20200710085029 71 203 0.0 0.0 0.00 0.00 0.00 98 1015.4
20200710084018 71 180 0.0 0.0 0.00 0.00 0.00 98 1015.7
20200710083029 70 0.0 0.0 0.00 0.00 0.00 98 1015.4
20200710082017 70 203 0.0 1.0 0.00 0.00 0.00 98 1015.4
20200710081026 70 203 0.0 0.0 0.00 0.00 0.00 98 1015.4
20200710080300 70 0.0 0.0 0.00 0.00 0.00 98 1015.4
20200710075254 70 248 0.0 0.0 0.00 0.00 0.00 98 1015.4
20200710074258 70 203 0.0 0.0 0.00 0.00 0.00 98 1015.4
20200710073247 70 248 0.0 2.0 0.00 0.00 0.00 98 1015.0
20200710072255 70 0.0 0.0 0.00 0.00 0.00 98 1015.2
20200710071303 70 0.0 0.0 0.00 0.00 0.00 98 1015.0
20200710070253 70 225 0.0 0.0 0.00 0.00 0.00 98 1015.0
20200710065040 70 0.0 0.0 0.00 0.00 0.00 98 1015.0
20200710064028 70 180 0.0 0.0 0.00 0.00 0.00 98 1015.2
20200710063031 70 180 0.0 0.0 0.00 0.00 0.00 98 1015.4
20200710062024 70 203 0.0 0.0 0.00 0.00 0.00 98 1015.0
20200710061028 70 0.0 0.0 0.00 0.00 0.00 98 1015.4
20200710060245 70 225 0.0 0.0 0.00 0.00 0.00 98 1015.4
20200710055257 71 0.0 0.0 0.00 0.00 0.00 98 1015.2
20200710054302 71 0.0 0.0 0.00 0.00 0.00 98 1015.4
20200710053251 71 225 0.0 0.0 0.00 0.00 0.00 98 1015.0
20200710052303 71 225 0.0 0.0 0.00 0.00 0.00 98 1015.2
20200710051248 71 203 0.0 0.0 0.00 0.00 0.00 98 1015.2
20200710050256 71 0.0 0.0 0.00 0.00 0.00 98 1015.2
20200710045249 71 0.0 0.0 0.00 0.00 0.00 98 1015.0
20200710044254 71 203 0.0 0.0 0.00 0.00 0.00 98 1015.0
20200710043305 72 180 0.0 0.0 0.00 0.00 0.00 98 1015.0
20200710042251 72 0.0 0.0 0.00 0.00 0.00 96 1015.0
20200710041033 72 203 0.0 0.0 0.00 0.00 0.00 96 1015.2
20200710040251 72 0.0 0.0 0.00 0.00 0.00 96 1015.0
20200710035258 72 203 0.0 0.0 0.00 0.00 0.00 96 1015.0
20200710034246 73 203 0.0 0.0 0.00 0.00 0.00 96 1015.0
20200710033258 73 0.0 0.0 0.00 0.00 0.00 96 1015.0
20200710032302 73 0.0 0.0 0.00 0.00 0.00 94 1015.0
20200710031252 73 203 0.0 0.0 0.00 0.00 0.00 93 1014.9
20200710030032 74 0.0 0.0 0.00 0.00 0.00 93 1015.0
20200710025021 74 0.0 0.0 0.00 0.00 0.00 93 1015.0
20200710024029 74 225 0.0 0.0 0.00 0.00 0.00 93 1015.0
20200710023021 75 203 0.0 0.0 0.00 0.00 0.00 91 1014.9
20200710022030 75 0.0 0.0 0.00 0.00 0.00 91 1014.9
20200710021016 75 0.0 0.0 0.00 0.00 0.00 91 1014.7
20200710020254 75 225 0.0 1.0 0.00 0.00 0.00 91 1014.9
20200710015302 75 203 0.0 2.0 0.00 0.00 0.00 91 1014.9
20200710014254 76 225 0.0 0.0 0.00 0.00 0.00 90 1014.7
20200710013258 76 226 1.0 2.0 0.00 0.00 0.00 90 1014.7
20200710012247 76 225 0.0 0.0 0.00 0.00 0.00 88 1014.4
20200710011255 77 0.0 1.0 0.00 0.00 0.00 88 1014.4
20200710010303 77 222 2.0 3.0 0.00 0.00 0.00 88 1014.4
20200710005255 77 225 0.0 0.0 0.00 0.00 0.00 86 1014.4
20200710004035 78 0.0 0.0 0.00 0.00 0.00 86 1014.2
20200710003025 78 203 0.0 0.0 0.00 0.00 0.00 83 1014.2
20200710002030 79 192 1.0 2.0 0.00 0.00 0.00 83 1014.0
20200710001020 79 197 2.0 3.0 0.00 0.00 0.00 82 1014.0
20200710000255 79 248 1.0 1.0 0.00 0.00 0.00 81 1014.0
20200709235245 80 225 2.0 5.0 0.00 0.00 0.00 80 1014.0
20200709234253 81 225 1.0 1.0 0.00 0.00 0.00 79 1013.8
20200709233035 81 203 0.0 0.0 0.00 0.00 0.00 78 1013.8
20200709232024 82 210 1.0 2.0 0.00 0.00 0.00 77 1013.7
20200709231030 82 233 1.0 2.0 0.00 0.00 0.00 76 1013.8
20200709230021 83 203 2.0 4.0 0.00 0.00 0.00 75 1013.5
20200709225028 83 225 1.0 3.0 0.00 0.00 0.00 75 1013.7
20200709224017 84 225 2.0 3.0 0.00 0.00 0.00 75 1013.3
20200709223025 85 225 1.0 2.0 0.00 0.00 0.00 75 1013.3
20200709222021 85 225 2.0 4.0 0.00 0.00 0.00 76 1013.3
20200709221023 86 225 2.0 2.0 0.00 0.00 0.00 75 1013.3
20200709220259 86 216 2.0 3.0 0.00 0.00 0.00 75 1013.3
20200709215253 86 225 2.0 4.0 0.00 0.00 0.00 75 1013.3
20200709214257 86 203 1.0 2.0 0.00 0.00 0.00 75 1013.2
20200709213246 86 247 2.0 3.0 0.00 0.00 0.00 75 1013.2
20200709212256 87 229 2.0 3.0 0.00 0.00 0.00 75 1013.3
20200709211302 87 236 2.0 3.0 0.00 0.00 0.00 75 1013.3
20200709210251 88 240 3.0 5.0 0.00 0.00 0.00 73 1013.3
20200709205033 89 246 3.0 3.0 0.00 0.00 0.00 73 1013.3
20200709204022 90 231 2.0 3.0 0.00 0.00 0.00 71 1013.3
20200709203030 91 248 1.0 2.0 0.00 0.00 0.00 70 1013.3
20200709202021 89 246 2.0 3.0 0.00 0.00 0.00 73 1013.3
20200709201028 91 248 0.0 0.0 0.00 0.00 0.00 68 1013.7
20200709200302 91 248 0.0 2.0 0.00 0.00 0.00 66 1013.7
20200709195252 90 240 1.0 2.0 0.00 0.00 0.00 69 1013.7
20200709194304 87 113 0.0 0.0 0.00 0.00 0.00 75 1013.3
20200709193249 88 225 0.0 2.0 0.00 0.00 0.00 70 1013.3
20200709192258 89 230 2.0 3.0 0.00 0.00 0.00 68 1013.3
20200709191246 91 211 2.0 2.0 0.00 0.00 0.00 64 1013.3
20200709190255 90 158 0.0 0.0 0.00 0.00 0.00 65 1013.2
20200709185302 88 225 0.0 1.0 0.00 0.00 0.00 68 1013.3
20200709184256 89 0.0 0.0 0.00 0.00 0.00 67 1013.3
20200709183035 88 248 0.0 0.0 0.00 0.00 0.00 66 1013.5
20200709182024 89 248 0.0 2.0 0.00 0.00 0.00 66 1013.7